When you browse on this site, cookies collect data to enhance your experience and personalize the content and advertising you see.
Visit our Privacy Policy to learn more. By continuing to use the site, you agree to this use of cookies and data.
  • In Latvia
  • List of Countries
  • For 7 days
  • Water Temperature
  • Weather Map
  • Weather Widgets
  • user-avatar
    Login

    Hourly Weather Matanzas

    Today, 18 September, Wednesday

    Time Temperature Precipitation Wind Pressure Humidity
    00:00 +27°C° 0 mm 3 mps 754 mmHg 81%
    01:00 +27°C° 0 mm 3 mps 754 mmHg 86%
    02:00 +27°C° 0.2 mm 3 mps 754 mmHg 87%
    03:00 +27°C° 0.2 mm 3 mps 754 mmHg 87%
    04:00 +27°C° 0.2 mm 3 mps 753 mmHg 88%
    05:00 +27°C° 0.2 mm 3 mps 753 mmHg 88%
    06:00 +27°C° 0.2 mm 3 mps 753 mmHg 88%
    07:00 +28°C° 0.2 mm 3 mps 753 mmHg 88%
    08:00 +29°C° 0.1 mm 3 mps 754 mmHg 82%
    09:00 +30°C° 0.1 mm 3 mps 754 mmHg 75%
    10:00 +33°C° 0.1 mm 3 mps 754 mmHg 69%
    11:00 +33°C° 0 mm 4 mps 754 mmHg 68%
    12:00 +33°C° 0 mm 4 mps 754 mmHg 67%
    13:00 +33°C° 0 mm 4 mps 754 mmHg 66%
    14:00 +33°C° 0.1 mm 5 mps 753 mmHg 69%
    15:00 +32°C° 0.1 mm 5 mps 753 mmHg 72%
    16:00 +30°C° 0.1 mm 6 mps 752 mmHg 75%
    17:00 +29°C° 0.1 mm 5 mps 752 mmHg 79%
    18:00 +28°C° 0.1 mm 5 mps 753 mmHg 83%
    19:00 +27°C° 0.1 mm 5 mps 753 mmHg 87%
    20:00 +27°C° 0 mm 5 mps 753 mmHg 86%
    21:00 +27°C° 0 mm 5 mps 753 mmHg 86%
    22:00 +27°C° 0 mm 6 mps 754 mmHg 86%
    23:00 +27°C° 0 mm 6 mps 753 mmHg 86%

    Tomorrow, 19 September, Thursday

    Time Temperature Precipitation Wind Pressure Humidity
    00:00 +27°C° 0 mm 6 mps 753 mmHg 86%
    01:00 +27°C° 0 mm 6 mps 753 mmHg 86%
    02:00 +27°C° 0.2 mm 6 mps 753 mmHg 86%
    03:00 +27°C° 0.2 mm 6 mps 753 mmHg 86%
    04:00 +26°C° 0.2 mm 6 mps 752 mmHg 86%
    05:00 +26°C° 0.1 mm 6 mps 753 mmHg 85%
    06:00 +26°C° 0.1 mm 6 mps 753 mmHg 85%
    07:00 +26°C° 0.1 mm 6 mps 753 mmHg 84%
    08:00 +27°C° 0 mm 6 mps 753 mmHg 79%
    09:00 +28°C° 0 mm 7 mps 754 mmHg 74%
    10:00 +29°C° 0 mm 7 mps 754 mmHg 69%
    11:00 +30°C° 0 mm 7 mps 754 mmHg 68%
    12:00 +30°C° 0 mm 7 mps 753 mmHg 67%
    13:00 +30°C° 0 mm 7 mps 753 mmHg 65%
    14:00 +30°C° 0 mm 7 mps 753 mmHg 66%
    15:00 +30°C° 0 mm 7 mps 752 mmHg 67%
    16:00 +29°C° 0 mm 6 mps 752 mmHg 67%
    17:00 +28°C° 0 mm 6 mps 752 mmHg 72%
    18:00 +27°C° 0 mm 6 mps 752 mmHg 77%
    19:00 +26°C° 0 mm 5 mps 752 mmHg 82%
    20:00 +26°C° 0.2 mm 6 mps 753 mmHg 85%
    21:00 +26°C° 0.2 mm 6 mps 753 mmHg 87%
    22:00 +26°C° 0.2 mm 6 mps 754 mmHg 89%
    23:00 +25°C° 0.1 mm 5 mps 753 mmHg 89%

    Day after tomorrow, 20 September, Friday

    Time Temperature Precipitation Wind Pressure Humidity
    00:00 +25°C° 0.1 mm 5 mps 753 mmHg 90%
    01:00 +25°C° 0.1 mm 5 mps 753 mmHg 90%
    02:00 +25°C° 0.1 mm 5 mps 753 mmHg 91%
    03:00 +25°C° 0.1 mm 5 mps 753 mmHg 91%
    04:00 +23°C° 0.1 mm 5 mps 753 mmHg 92%
    05:00 +25°C° 0 mm 5 mps 753 mmHg 91%
    06:00 +25°C° 0 mm 5 mps 754 mmHg 90%
    07:00 +25°C° 0 mm 5 mps 754 mmHg 89%
    08:00 +27°C° 0 mm 5 mps 754 mmHg 84%
    09:00 +29°C° 0 mm 6 mps 755 mmHg 78%
    10:00 +30°C° 0 mm 6 mps 755 mmHg 72%
    11:00 +32°C° 0 mm 6 mps 755 mmHg 71%
    12:00 +32°C° 0 mm 7 mps 754 mmHg 70%
    13:00 +32°C° 0 mm 7 mps 754 mmHg 69%
    14:00 +32°C° 0.1 mm 7 mps 754 mmHg 71%
    15:00 +32°C° 0.1 mm 7 mps 754 mmHg 73%
    16:00 +30°C° 0.1 mm 7 mps 753 mmHg 76%
    17:00 +30°C° 0.1 mm 6 mps 754 mmHg 78%
    18:00 +29°C° 0.1 mm 6 mps 754 mmHg 81%
    19:00 +28°C° 0.1 mm 6 mps 754 mmHg 83%
    20:00 +28°C° 0.5 mm 6 mps 754 mmHg 84%
    21:00 +28°C° 0.5 mm 6 mps 755 mmHg 85%
    22:00 +27°C° 0.5 mm 6 mps 755 mmHg 86%
    23:00 +27°C° 0.2 mm 5 mps 755 mmHg 87%

    21 September, Saturday

    Time Temperature Precipitation Wind Pressure Humidity
    00:00 +27°C° 0.2 mm 5 mps 755 mmHg 89%
    01:00 +26°C° 0.2 mm 4 mps 755 mmHg 90%
    02:00 +26°C° 0.1 mm 4 mps 754 mmHg 91%
    03:00 +26°C° 0.1 mm 4 mps 754 mmHg 92%
    04:00 +26°C° 0.1 mm 3 mps 754 mmHg 93%
    05:00 +26°C° 0.1 mm 3 mps 755 mmHg 93%
    06:00 +26°C° 0.1 mm 3 mps 755 mmHg 93%
    07:00 +26°C° 0.1 mm 3 mps 755 mmHg 93%
    08:00 +28°C° 0.1 mm 4 mps 755 mmHg 86%
    09:00 +30°C° 0.1 mm 4 mps 756 mmHg 80%
    10:00 +32°C° 0.1 mm 4 mps 756 mmHg 74%
    11:00 +33°C° 0.5 mm 5 mps 756 mmHg 72%
    12:00 +33°C° 0.5 mm 5 mps 756 mmHg 70%
    13:00 +34°C° 0.5 mm 5 mps 755 mmHg 68%
    14:00 +33°C° 0.7 mm 6 mps 755 mmHg 71%
    15:00 +33°C° 0.7 mm 6 mps 755 mmHg 73%
    16:00 +32°C° 0.7 mm 7 mps 754 mmHg 76%
    17:00 +30°C° 0.3 mm 7 mps 754 mmHg 80%
    18:00 +29°C° 0.3 mm 6 mps 755 mmHg 83%
    19:00 +28°C° 0.3 mm 6 mps 755 mmHg 87%
    20:00 +28°C° 0.2 mm 6 mps 755 mmHg 88%
    21:00 +27°C° 0.2 mm 6 mps 756 mmHg 88%
    22:00 +27°C° 0.2 mm 6 mps 756 mmHg 89%
    23:00 +27°C° 0.1 mm 5 mps 756 mmHg 90%

    22 September, Sunday

    Time Temperature Precipitation Wind Pressure Humidity
    00:00 +27°C° 0.1 mm 5 mps 755 mmHg 91%
    01:00 +26°C° 0.1 mm 5 mps 755 mmHg 91%
    02:00 +26°C° 0 mm 5 mps 755 mmHg 92%
    03:00 +26°C° 0 mm 5 mps 755 mmHg 92%
    04:00 +26°C° 0 mm 5 mps 754 mmHg 92%
    05:00 +27°C° 0.1 mm 5 mps 755 mmHg 92%
    06:00 +27°C° 0.1 mm 5 mps 755 mmHg 92%
    07:00 +27°C° 0.1 mm 5 mps 755 mmHg 92%
    08:00 +28°C° 0.1 mm 6 mps 756 mmHg 86%
    09:00 +30°C° 0.1 mm 6 mps 756 mmHg 80%
    10:00 +32°C° 0.1 mm 7 mps 756 mmHg 75%
    11:00 +32°C° 0.1 mm 7 mps 756 mmHg 73%
    12:00 +33°C° 0.1 mm 8 mps 755 mmHg 72%
    13:00 +33°C° 0.1 mm 8 mps 755 mmHg 70%
    14:00 +33°C° 0 mm 8 mps 755 mmHg 72%
    15:00 +32°C° 0 mm 8 mps 754 mmHg 74%
    16:00 +32°C° 0 mm 8 mps 754 mmHg 75%
    17:00 +30°C° 0.1 mm 7 mps 754 mmHg 79%
    18:00 +29°C° 0.1 mm 7 mps 754 mmHg 82%
    19:00 +28°C° 0.1 mm 7 mps 754 mmHg 86%
    20:00 +28°C° 0.1 mm 7 mps 755 mmHg 88%
    21:00 +27°C° 0.1 mm 7 mps 755 mmHg 89%
    22:00 +27°C° 0.1 mm 7 mps 755 mmHg 90%
    23:00 +27°C° 0.2 mm 6 mps 755 mmHg 91%

    23 September, Monday

    Time Temperature Precipitation Wind Pressure Humidity
    00:00 +27°C° 0.2 mm 6 mps 755 mmHg 91%
    01:00 +26°C° 0.2 mm 6 mps 755 mmHg 92%
    02:00 +26°C° 0.2 mm 6 mps 754 mmHg 92%
    03:00 +26°C° 0.2 mm 5 mps 754 mmHg 92%
    04:00 +26°C° 0.2 mm 5 mps 754 mmHg 92%
    05:00 +26°C° 0 mm 5 mps 754 mmHg 92%
    06:00 +26°C° 0 mm 5 mps 754 mmHg 92%
    07:00 +27°C° 0 mm 5 mps 754 mmHg 92%
    08:00 +28°C° 0.1 mm 6 mps 755 mmHg 88%
    09:00 +29°C° 0.1 mm 6 mps 755 mmHg 83%
    10:00 +30°C° 0.1 mm 7 mps 755 mmHg 79%
    11:00 +30°C° 0.3 mm 7 mps 755 mmHg 78%
    12:00 +31°C° 0.3 mm 8 mps 755 mmHg 77%
    13:00 +31°C° 0.3 mm 8 mps 755 mmHg 77%
    14:00 +31°C° 0.1 mm 8 mps 754 mmHg 77%
    15:00 +31°C° 0.1 mm 8 mps 754 mmHg 78%
    16:00 +29°C° 0.1 mm 7 mps 753 mmHg 78%
    17:00 +29°C° 0 mm 7 mps 753 mmHg 79%
    18:00 +28°C° 0 mm 7 mps 754 mmHg 81%
    19:00 +27°C° 0 mm 7 mps 754 mmHg 82%
    20:00 +27°C° 0 mm 7 mps 754 mmHg 82%
    21:00 +27°C° 0 mm 6 mps 754 mmHg 82%
    22:00 +27°C° 0 mm 6 mps 755 mmHg 82%
    23:00 +26°C° 0 mm 6 mps 754 mmHg 83%
    Show more